Flag Weather past 2 weeks in Rzeszów, Poland

Now
28 °F

Low clouds.


Feels Like: 17 °F
Forecast: 21 / 29 °F
Wind: 15 mph from East

Location: Rzeszow-Jasionka

Current Time: Nov 28, 2014 at 1:17:29 PM

Latest Report: Nov 28, 2014 at 12:30 PM


Visibility: 4 mi

Pressure: 30.21 "Hg

Humidity: 93%

Dew point: 27 °F

Location of RzeszówLocation

Historic Weather in Rzeszów — Graph

°F

Rzeszów temperature yesterday

Maximum temperature yesterday: 32 °F (at 12:00 PM)
Minimum temperature yesterday: 27 °F (at 10:30 PM)
Average temperature yesterday: 30 °F

Past Weeks' High & Low Weather Summary

 TemperatureHumidityPressure
High52 °F (Nov 13, 1:00 PM)100% (Nov 13, 9:30 PM)30.48 "Hg (Nov 13, 9:30 PM)
Low27 °F (Nov 24, 6:00 AM)81% (Nov 23, 3:00 PM)29.89 "Hg (Nov 16, 11:30 AM)
Average37 °F95%30.17 "Hg
* Reported Nov 13 12:00 Noon — Nov 28 12:00 Noon, Rzeszów, Weather by CustomWeather, © 2014

Note: Actual official high and low records may vary slightly from our data, if they occured in-between our weather recording intervals... More about our weather records

Advertising

Rzeszów weather history for previous 24 hours

 ConditionsComfort  
Time TempWeatherWind HumidityBarometerVisibility
12:00 PM
Nov 28
28 °FLow clouds.12 mph93%30.21 "Hg4 mi
11:30 AM28 °FLow clouds.16 mph93%30.21 "Hg4 mi
11:00 AM28 °FLow clouds.15 mph93%30.21 "Hg4 mi
10:30 AM28 °FLow clouds.13 mph93%30.21 "Hg4 mi
10:00 AM28 °FLow clouds.16 mph93%30.21 "Hg4 mi
9:30 AM28 °FLow clouds.15 mph93%30.21 "Hg4 mi
9:00 AM28 °FLow clouds.16 mph93%30.21 "Hg4 mi
8:30 AM28 °FLow clouds.10 mph93%30.18 "Hg4 mi
8:00 AM28 °FLow clouds.14 mph93%30.18 "Hg4 mi
7:30 AM28 °FLow clouds.14 mph93%30.18 "HgN/A
7:00 AM28 °FLow clouds.15 mph93%30.18 "HgN/A
6:30 AM28 °FLow clouds.15 mph93%30.18 "HgN/A
6:00 AM28 °FLow clouds.15 mph93%30.18 "HgN/A
5:30 AM28 °FLow clouds.16 mph93%30.15 "HgN/A
5:00 AM28 °FLow clouds.17 mph93%30.15 "HgN/A
4:30 AM28 °FLow clouds.15 mph93%30.15 "HgN/A
4:00 AM28 °FLow clouds.12 mph93%30.15 "HgN/A
3:30 AM28 °FLow clouds.13 mph93%30.15 "HgN/A
3:00 AM28 °FLow clouds.14 mph93%30.15 "HgN/A
2:30 AM28 °FLow clouds.15 mph93%30.15 "HgN/A
2:00 AM28 °FLow clouds.18 mph93%30.15 "HgN/A
1:30 AM28 °FLow clouds.14 mph93%30.15 "HgN/A
1:00 AM28 °FLow clouds.15 mph93%30.15 "HgN/A
12:30 AM28 °FLow clouds.15 mph93%30.15 "HgN/A
12:00 AM27 °FLow clouds.14 mph93%30.15 "HgN/A
11:30 PM
Nov 27
27 °FLow clouds.15 mph93%30.18 "HgN/A
11:00 PM27 °FLow clouds.15 mph100%30.18 "HgN/A
10:30 PM27 °FLow clouds.14 mph93%30.18 "HgN/A
10:00 PM28 °FLow clouds.14 mph93%30.18 "HgN/A
9:30 PM28 °FLow clouds.10 mph93%30.18 "HgN/A
9:00 PM28 °FLow clouds.15 mph93%30.18 "HgN/A
8:30 PM28 °FLow clouds.15 mph93%30.18 "HgN/A
8:00 PM28 °FLow clouds.15 mph93%30.18 "HgN/A
7:30 PM28 °FPassing clouds.15 mph93%30.18 "HgN/A
7:00 PM28 °FPassing clouds.14 mph93%30.15 "Hg5 mi
6:30 PM28 °FPassing clouds.10 mph93%30.15 "Hg4 mi
6:00 PM28 °FPassing clouds.10 mph93%30.15 "Hg4 mi
5:30 PM28 °FPassing clouds.13 mph100%30.18 "Hg4 mi
5:00 PM28 °FPartly cloudy.12 mph100%30.15 "Hg4 mi
4:30 PM30 °FPartly cloudy.12 mph93%30.18 "Hg4 mi
4:00 PM30 °FPartly cloudy.15 mph93%30.15 "Hg4 mi
3:30 PM30 °FPartly sunny.13 mph100%30.15 "Hg4 mi
3:00 PM30 °FIce fog.15 mph100%30.15 "Hg3 mi
2:30 PM32 °FIce fog.14 mph93%30.15 "Hg3 mi
2:00 PM32 °FIce fog.12 mph93%30.15 "Hg3 mi
1:30 PM32 °FIce fog.12 mph93%30.18 "Hg3 mi
1:00 PM32 °FIce fog.13 mph100%30.18 "Hg3 mi
Weather by CustomWeather, © 2014

See weather overviewHow to use our weather pages